sat.trackr.live / text

‹ back to catalog

STARLINK-1368

NORAD 45540 · 2020-025K

PAYLOAD ACTIVE UNKNOWN

§ Identity

Operator
Country
US
Launch date
2020-04-22
Launch site
AFETR
Launch vehicle
Mass (kg)
RCS (m²)

Purposes: comms

External: N2YO · Heavens-Above · Gunter

§ Orbital elements

Epoch: 2026-09-14T19:00:36.112896Z

Period
93.13 min
Inclination
53.1511°
Eccentricity
0.0003452
Mean motion
15.46273873 rev/d
Perigee alt
425.3 km
Apogee alt
430.0 km
Semi-major
6,805.8 km
B*
8.1931e-4
RAAN
292.6927°
Arg perigee
51.7902°
Mean anomaly
308.3416°
Rev number
35,426

§ Raw data

STARLINK-13681 45540U 20025K   26257.79208464  .00040786  00000+0  81931-3 0  99982 45540  53.1511 292.6927 0003452  51.7902 308.3416 15.46273873354262

JSON: /api/v1/satellites/45540 · /tle

For live sub-satellite position, see the globe view (requires WebGL).

§ Visibility from observer

Set your observer location to see the next 7 days of passes ≥ 10°. The values pass through the URL so the page stays shareable.

No JS? Fill the form by hand. The geolocation button needs JavaScript.